• In Portugal
  • List of Countries
  • For 7 days
  • Water Temperature
  • Satellite Maps
  • Weather Map
  • Weather Widgets
  • user-avatar
    Login

    Hourly Weather Van

    Today, 20 October, Friday

    Time Temperature Precipitation Wind Pressure Humidity
    00:00 +7°C° 0 mm 0 mps 620 mmHg 44%
    01:00 +6°C° 0 mm 0 mps 620 mmHg 45%
    02:00 +6°C° 0 mm 0 mps 620 mmHg 46%
    03:00 +5°C° 0 mm 0 mps 620 mmHg 47%
    04:00 +5°C° 0 mm 0 mps 620 mmHg 49%
    05:00 +4°C° 0 mm 0 mps 620 mmHg 50%
    06:00 +4°C° 0 mm 0 mps 619 mmHg 51%
    07:00 +6°C° 0 mm 0 mps 620 mmHg 44%
    08:00 +9°C° 0 mm 0 mps 621 mmHg 36%
    09:00 +11°C° 0 mm 0 mps 622 mmHg 29%
    10:00 +13°C° 0 mm 1 mps 622 mmHg 26%
    11:00 +14°C° 0 mm 1 mps 622 mmHg 22%
    12:00 +15°C° 0 mm 2 mps 622 mmHg 19%
    13:00 +16°C° 0 mm 2 mps 622 mmHg 19%
    14:00 +16°C° 0 mm 2 mps 622 mmHg 19%
    15:00 +16°C° 0 mm 3 mps 622 mmHg 18%
    16:00 +14°C° 0 mm 2 mps 621 mmHg 22%
    17:00 +13°C° 0 mm 2 mps 621 mmHg 26%
    18:00 +11°C° 0 mm 1 mps 620 mmHg 30%
    19:00 +10°C° 0 mm 1 mps 620 mmHg 32%
    20:00 +10°C° 0 mm 1 mps 620 mmHg 33%
    21:00 +9°C° 0 mm 1 mps 620 mmHg 35%
    22:00 +8°C° 0 mm 1 mps 620 mmHg 36%
    23:00 +8°C° 0 mm 1 mps 620 mmHg 37%

    Tomorrow, 21 October, Saturday

    Time Temperature Precipitation Wind Pressure Humidity
    00:00 +6°C° 0 mm 0 mps 620 mmHg 38%
    01:00 +6°C° 0 mm 0 mps 619 mmHg 39%
    02:00 +5°C° 0 mm 0 mps 619 mmHg 40%
    03:00 +5°C° 0 mm 0 mps 619 mmHg 41%
    04:00 +5°C° 0 mm 0 mps 619 mmHg 42%
    05:00 +4°C° 0 mm 0 mps 618 mmHg 43%
    06:00 +4°C° 0 mm 0 mps 618 mmHg 44%
    07:00 +6°C° 0 mm 0 mps 619 mmHg 38%
    08:00 +9°C° 0 mm 0 mps 620 mmHg 31%
    09:00 +12°C° 0 mm 0 mps 621 mmHg 25%
    10:00 +14°C° 0 mm 1 mps 621 mmHg 23%
    11:00 +15°C° 0 mm 1 mps 621 mmHg 21%
    12:00 +16°C° 0 mm 2 mps 621 mmHg 18%
    13:00 +16°C° 0 mm 2 mps 620 mmHg 18%
    14:00 +16°C° 0 mm 2 mps 620 mmHg 18%
    15:00 +16°C° 0 mm 3 mps 620 mmHg 18%
    16:00 +15°C° 0 mm 2 mps 619 mmHg 23%
    17:00 +13°C° 0 mm 2 mps 619 mmHg 27%
    18:00 +11°C° 0 mm 1 mps 618 mmHg 31%
    19:00 +10°C° 0 mm 1 mps 618 mmHg 33%
    20:00 +10°C° 0 mm 1 mps 618 mmHg 34%
    21:00 +9°C° 0 mm 1 mps 618 mmHg 35%
    22:00 +9°C° 0 mm 1 mps 618 mmHg 36%
    23:00 +8°C° 0 mm 1 mps 618 mmHg 37%

    Day after tomorrow, 22 October, Sunday

    Time Temperature Precipitation Wind Pressure Humidity
    00:00 +8°C° 0 mm 1 mps 617 mmHg 37%
    01:00 +7°C° 0 mm 1 mps 617 mmHg 38%
    02:00 +7°C° 0 mm 1 mps 617 mmHg 38%
    03:00 +6°C° 0 mm 1 mps 617 mmHg 39%
    04:00 +6°C° 0 mm 1 mps 617 mmHg 39%
    05:00 +6°C° 0 mm 1 mps 617 mmHg 39%
    06:00 +5°C° 0 mm 1 mps 616 mmHg 40%
    07:00 +8°C° 0 mm 1 mps 617 mmHg 34%
    08:00 +10°C° 0 mm 1 mps 618 mmHg 28%
    09:00 +12°C° 0 mm 1 mps 619 mmHg 23%
    10:00 +13°C° 0 mm 2 mps 619 mmHg 22%
    11:00 +14°C° 0 mm 3 mps 619 mmHg 21%
    12:00 +16°C° 0 mm 3 mps 619 mmHg 20%
    13:00 +15°C° 0 mm 4 mps 619 mmHg 21%
    14:00 +15°C° 0 mm 4 mps 618 mmHg 21%
    15:00 +15°C° 0 mm 5 mps 618 mmHg 22%
    16:00 +14°C° 0 mm 4 mps 618 mmHg 26%
    17:00 +12°C° 0 mm 3 mps 617 mmHg 30%
    18:00 +11°C° 0 mm 3 mps 617 mmHg 34%
    19:00 +10°C° 0 mm 3 mps 617 mmHg 37%
    20:00 +9°C° 0 mm 2 mps 617 mmHg 40%
    21:00 +9°C° 0 mm 2 mps 617 mmHg 43%
    22:00 +8°C° 0 mm 2 mps 617 mmHg 44%
    23:00 +8°C° 0 mm 2 mps 617 mmHg 46%

    23 October, Monday

    Time Temperature Precipitation Wind Pressure Humidity
    00:00 +7°C° 0 mm 2 mps 617 mmHg 48%
    01:00 +7°C° 0 mm 2 mps 617 mmHg 49%
    02:00 +7°C° 0 mm 1 mps 617 mmHg 50%
    03:00 +7°C° 0 mm 1 mps 617 mmHg 52%
    04:00 +6°C° 0 mm 1 mps 617 mmHg 52%
    05:00 +6°C° 0 mm 1 mps 617 mmHg 53%
    06:00 +6°C° 0 mm 1 mps 617 mmHg 54%
    07:00 +8°C° 0 mm 1 mps 618 mmHg 47%
    08:00 +10°C° 0 mm 1 mps 619 mmHg 40%
    09:00 +12°C° 0 mm 1 mps 620 mmHg 33%
    10:00 +13°C° 0 mm 1 mps 620 mmHg 29%
    11:00 +15°C° 0 mm 2 mps 620 mmHg 26%
    12:00 +16°C° 0 mm 2 mps 620 mmHg 22%
    13:00 +16°C° 0 mm 2 mps 620 mmHg 21%
    14:00 +17°C° 0 mm 2 mps 620 mmHg 21%
    15:00 +17°C° 0 mm 3 mps 619 mmHg 20%
    16:00 +15°C° 0 mm 2 mps 619 mmHg 24%
    17:00 +13°C° 0 mm 2 mps 619 mmHg 28%
    18:00 +12°C° 0 mm 1 mps 618 mmHg 32%
    19:00 +11°C° 0 mm 1 mps 618 mmHg 34%
    20:00 +10°C° 0 mm 1 mps 618 mmHg 35%
    21:00 +10°C° 0 mm 1 mps 618 mmHg 36%
    22:00 +9°C° 0 mm 1 mps 618 mmHg 38%
    23:00 +9°C° 0 mm 1 mps 618 mmHg 39%

    24 October, Tuesday

    Time Temperature Precipitation Wind Pressure Humidity
    00:00 +8°C° 0 mm 1 mps 618 mmHg 41%
    01:00 +8°C° 0 mm 1 mps 618 mmHg 42%
    02:00 +8°C° 0 mm 1 mps 618 mmHg 43%
    03:00 +8°C° 0 mm 1 mps 618 mmHg 44%
    04:00 +8°C° 0 mm 1 mps 618 mmHg 44%
    05:00 +8°C° 0 mm 1 mps 618 mmHg 45%
    06:00 +7°C° 0 mm 1 mps 618 mmHg 46%
    07:00 +9°C° 0 mm 1 mps 619 mmHg 41%
    08:00 +11°C° 0 mm 1 mps 620 mmHg 35%
    09:00 +13°C° 0 mm 1 mps 621 mmHg 30%
    10:00 +15°C° 0 mm 2 mps 621 mmHg 27%
    11:00 +16°C° 0 mm 2 mps 621 mmHg 25%
    12:00 +17°C° 0 mm 3 mps 621 mmHg 22%
    13:00 +17°C° 0 mm 3 mps 621 mmHg 23%
    14:00 +18°C° 0 mm 3 mps 621 mmHg 24%
    15:00 +18°C° 0 mm 3 mps 621 mmHg 24%
    16:00 +16°C° 0 mm 2 mps 621 mmHg 28%
    17:00 +14°C° 0 mm 2 mps 621 mmHg 32%
    18:00 +13°C° 0 mm 1 mps 621 mmHg 36%
    19:00 +12°C° 0 mm 1 mps 621 mmHg 38%
    20:00 +12°C° 0 mm 1 mps 621 mmHg 39%
    21:00 +11°C° 0 mm 1 mps 621 mmHg 41%
    22:00 +11°C° 0 mm 1 mps 621 mmHg 42%
    23:00 +11°C° 0 mm 1 mps 621 mmHg 42%

    25 October, Wednesday

    Time Temperature Precipitation Wind Pressure Humidity
    00:00 +10°C° 0 mm 1 mps 621 mmHg 43%
    01:00 +10°C° 0 mm 1 mps 621 mmHg 44%
    02:00 +9°C° 0 mm 2 mps 621 mmHg 46%
    03:00 +8°C° 0 mm 2 mps 621 mmHg 47%
    04:00 +8°C° 0 mm 2 mps 621 mmHg 47%
    05:00 +8°C° 0 mm 2 mps 621 mmHg 48%
    06:00 +8°C° 0 mm 2 mps 621 mmHg 49%
    07:00 +10°C° 0 mm 2 mps 622 mmHg 43%
    08:00 +13°C° 0 mm 2 mps 623 mmHg 37%
    09:00 +15°C° 0 mm 2 mps 624 mmHg 32%
    10:00 +17°C° 0 mm 2 mps 624 mmHg 29%
    11:00 +18°C° 0 mm 3 mps 624 mmHg 26%
    12:00 +20°C° 0 mm 3 mps 624 mmHg 23%
    13:00 +20°C° 0 mm 3 mps 624 mmHg 22%
    14:00 +20°C° 0 mm 4 mps 624 mmHg 21%
    15:00 +20°C° 0 mm 4 mps 624 mmHg 21%
    16:00 +18°C° 0 mm 3 mps 623 mmHg 25%
    17:00 +16°C° 0 mm 2 mps 623 mmHg 29%
    18:00 +14°C° 0 mm 1 mps 622 mmHg 34%
    19:00 +14°C° 0 mm 1 mps 623 mmHg 35%
    20:00 +13°C° 0 mm 1 mps 623 mmHg 37%
    21:00 +12°C° 0 mm 1 mps 623 mmHg 38%
    22:00 +12°C° 0 mm 1 mps 623 mmHg 38%
    23:00 +12°C° 0 mm 2 mps 623 mmHg 39%
    Show more